When you browse on this site, cookies collect data to enhance your experience and personalize the content and advertising you see.
Visit our Privacy Policy to learn more. By continuing to use the site, you agree to this use of cookies and data.
  • In Hungary
  • List of Countries
  • For 7 days
  • Water Temperature
  • Weather Map
  • News
  • Weather Widgets
  • user-avatar
    Login

    Hourly Weather Dankon

    Today, 13 December, Friday

    Time Temperature Precipitation Wind Pressure Humidity
    00:00 +12°C° 0 mm 0 mps 705 mmHg 83%
    01:00 +12°C° 0 mm 0 mps 705 mmHg 84%
    02:00 +11°C° 0 mm 0 mps 705 mmHg 86%
    03:00 +11°C° 0 mm 0 mps 705 mmHg 88%
    04:00 +11°C° 0 mm 0 mps 705 mmHg 90%
    05:00 +10°C° 0 mm 0 mps 705 mmHg 91%
    06:00 +10°C° 0 mm 0 mps 706 mmHg 91%
    07:00 +11°C° 0 mm 0 mps 706 mmHg 94%
    08:00 +15°C° 0 mm 0 mps 707 mmHg 80%
    09:00 +18°C° 0 mm 0 mps 708 mmHg 66%
    10:00 +22°C° 0 mm 0 mps 709 mmHg 51%
    11:00 +24°C° 0 mm 0 mps 708 mmHg 46%
    12:00 +25°C° 0 mm 0 mps 708 mmHg 41%
    13:00 +27°C° 0 mm 0 mps 707 mmHg 36%
    14:00 +26°C° 0 mm 0 mps 706 mmHg 38%
    15:00 +26°C° 0 mm 0 mps 706 mmHg 40%
    16:00 +25°C° 0 mm 0 mps 705 mmHg 42%
    17:00 +22°C° 0 mm 0 mps 705 mmHg 53%
    18:00 +19°C° 0 mm 0 mps 705 mmHg 65%
    19:00 +16°C° 0 mm 0 mps 706 mmHg 76%
    20:00 +16°C° 0 mm 0 mps 706 mmHg 79%
    21:00 +15°C° 0 mm 0 mps 706 mmHg 81%
    22:00 +14°C° 0 mm 0 mps 707 mmHg 84%
    23:00 +14°C° 0 mm 0 mps 706 mmHg 87%

    Tomorrow, 14 December, Saturday

    Time Temperature Precipitation Wind Pressure Humidity
    00:00 +13°C° 0 mm 0 mps 706 mmHg 90%
    01:00 +13°C° 0 mm 0 mps 706 mmHg 92%
    02:00 +12°C° 0 mm 0 mps 706 mmHg 94%
    03:00 +12°C° 0 mm 0 mps 706 mmHg 95%
    04:00 +12°C° 0 mm 0 mps 705 mmHg 96%
    05:00 +12°C° 0 mm 0 mps 706 mmHg 97%
    06:00 +11°C° 0 mm 0 mps 706 mmHg 97%
    07:00 +11°C° 0 mm 0 mps 707 mmHg 97%
    08:00 +15°C° 0 mm 0 mps 707 mmHg 82%
    09:00 +19°C° 0 mm 0 mps 708 mmHg 68%
    10:00 +22°C° 0 mm 0 mps 708 mmHg 53%
    11:00 +24°C° 0 mm 0 mps 708 mmHg 47%
    12:00 +26°C° 0 mm 0 mps 707 mmHg 41%
    13:00 +28°C° 0 mm 0 mps 706 mmHg 36%
    14:00 +27°C° 0 mm 0 mps 706 mmHg 37%
    15:00 +27°C° 0 mm 0 mps 705 mmHg 39%
    16:00 +26°C° 0 mm 0 mps 705 mmHg 41%
    17:00 +23°C° 0 mm 0 mps 704 mmHg 52%
    18:00 +20°C° 0 mm 0 mps 704 mmHg 63%
    19:00 +17°C° 0 mm 0 mps 704 mmHg 74%
    20:00 +16°C° 0 mm 0 mps 705 mmHg 77%
    21:00 +16°C° 0 mm 0 mps 705 mmHg 79%
    22:00 +15°C° 0 mm 0 mps 705 mmHg 82%
    23:00 +15°C° 0 mm 0 mps 705 mmHg 84%

    Day after tomorrow, 15 December, Sunday

    Time Temperature Precipitation Wind Pressure Humidity
    00:00 +14°C° 0 mm 0 mps 705 mmHg 86%
    01:00 +14°C° 0 mm 0 mps 704 mmHg 88%
    02:00 +13°C° 0 mm 0 mps 704 mmHg 89%
    03:00 +13°C° 0 mm 0 mps 704 mmHg 91%
    04:00 +12°C° 0 mm 0 mps 704 mmHg 92%
    05:00 +12°C° 0 mm 0 mps 704 mmHg 92%
    06:00 +12°C° 0 mm 0 mps 704 mmHg 92%
    07:00 +12°C° 0 mm 0 mps 705 mmHg 92%
    08:00 +16°C° 0 mm 0 mps 706 mmHg 78%
    09:00 +20°C° 0 mm 0 mps 706 mmHg 64%
    10:00 +24°C° 0 mm 0 mps 707 mmHg 49%
    11:00 +25°C° 0 mm 0 mps 707 mmHg 44%
    12:00 +27°C° 0 mm 0 mps 706 mmHg 38%
    13:00 +30°C° 0 mm 1 mps 705 mmHg 33%
    14:00 +30°C° 0 mm 1 mps 705 mmHg 35%
    15:00 +27°C° 0 mm 0 mps 704 mmHg 38%
    16:00 +27°C° 0 mm 0 mps 703 mmHg 40%
    17:00 +24°C° 0 mm 0 mps 703 mmHg 50%
    18:00 +21°C° 0 mm 0 mps 703 mmHg 60%
    19:00 +17°C° 0 mm 0 mps 703 mmHg 70%
    20:00 +17°C° 0 mm 0 mps 704 mmHg 72%
    21:00 +16°C° 0 mm 0 mps 704 mmHg 74%
    22:00 +16°C° 0 mm 0 mps 704 mmHg 75%
    23:00 +15°C° 0 mm 0 mps 704 mmHg 78%

    16 December, Monday

    Time Temperature Precipitation Wind Pressure Humidity
    00:00 +15°C° 0 mm 0 mps 704 mmHg 80%
    01:00 +14°C° 0 mm 0 mps 704 mmHg 82%
    02:00 +14°C° 0 mm 0 mps 704 mmHg 84%
    03:00 +13°C° 0 mm 0 mps 704 mmHg 85%
    04:00 +13°C° 0 mm 0 mps 703 mmHg 87%
    05:00 +13°C° 0 mm 0 mps 704 mmHg 88%
    06:00 +13°C° 0 mm 0 mps 704 mmHg 89%
    07:00 +13°C° 0 mm 0 mps 704 mmHg 90%
    08:00 +16°C° 0 mm 0 mps 705 mmHg 76%
    09:00 +20°C° 0 mm 0 mps 706 mmHg 63%
    10:00 +24°C° 0 mm 0 mps 706 mmHg 49%
    11:00 +26°C° 0 mm 0 mps 706 mmHg 44%
    12:00 +27°C° 0 mm 0 mps 705 mmHg 38%
    13:00 +31°C° 0 mm 1 mps 705 mmHg 33%
    14:00 +30°C° 0 mm 1 mps 704 mmHg 35%
    15:00 +30°C° 0 mm 1 mps 704 mmHg 37%
    16:00 +29°C° 0 mm 1 mps 703 mmHg 39%
    17:00 +24°C° 0 mm 0 mps 703 mmHg 48%
    18:00 +21°C° 0 mm 0 mps 703 mmHg 57%
    19:00 +18°C° 0 mm 0 mps 703 mmHg 66%
    20:00 +18°C° 0 mm 0 mps 704 mmHg 68%
    21:00 +17°C° 0 mm 0 mps 704 mmHg 70%
    22:00 +16°C° 0 mm 0 mps 704 mmHg 72%
    23:00 +16°C° 0 mm 0 mps 704 mmHg 74%

    17 December, Tuesday

    Time Temperature Precipitation Wind Pressure Humidity
    00:00 +15°C° 0 mm 0 mps 704 mmHg 76%
    01:00 +15°C° 0 mm 0 mps 704 mmHg 78%
    02:00 +14°C° 0 mm 0 mps 703 mmHg 80%
    03:00 +14°C° 0 mm 0 mps 703 mmHg 81%
    04:00 +14°C° 0 mm 0 mps 703 mmHg 83%
    05:00 +14°C° 0 mm 0 mps 703 mmHg 84%
    06:00 +13°C° 0 mm 0 mps 704 mmHg 85%
    07:00 +13°C° 0 mm 0 mps 704 mmHg 86%
    08:00 +17°C° 0 mm 0 mps 705 mmHg 72%
    09:00 +21°C° 0 mm 0 mps 705 mmHg 59%
    10:00 +25°C° 0 mm 0 mps 706 mmHg 46%
    11:00 +26°C° 0 mm 0 mps 705 mmHg 41%
    12:00 +28°C° 0 mm 0 mps 705 mmHg 37%
    13:00 +32°C° 0 mm 1 mps 704 mmHg 32%
    14:00 +31°C° 0 mm 1 mps 703 mmHg 34%
    15:00 +30°C° 0 mm 1 mps 703 mmHg 36%
    16:00 +30°C° 0 mm 1 mps 703 mmHg 38%
    17:00 +25°C° 0 mm 0 mps 703 mmHg 47%
    18:00 +22°C° 0 mm 0 mps 703 mmHg 56%
    19:00 +19°C° 0 mm 0 mps 703 mmHg 65%
    20:00 +18°C° 0 mm 0 mps 703 mmHg 67%
    21:00 +18°C° 0 mm 0 mps 704 mmHg 68%
    22:00 +17°C° 0 mm 0 mps 704 mmHg 70%
    23:00 +17°C° 0 mm 0 mps 704 mmHg 72%

    18 December, Wednesday

    Time Temperature Precipitation Wind Pressure Humidity
    00:00 +16°C° 0 mm 0 mps 704 mmHg 74%
    01:00 +16°C° 0 mm 0 mps 703 mmHg 76%
    02:00 +16°C° 0 mm 0 mps 703 mmHg 77%
    03:00 +15°C° 0 mm 0 mps 703 mmHg 79%
    04:00 +15°C° 0 mm 0 mps 703 mmHg 81%
    05:00 +15°C° 0 mm 0 mps 703 mmHg 82%
    06:00 +15°C° 0 mm 0 mps 704 mmHg 84%
    07:00 +15°C° 0 mm 0 mps 704 mmHg 85%
    08:00 +18°C° 0 mm 0 mps 705 mmHg 73%
    09:00 +22°C° 0 mm 0 mps 705 mmHg 61%
    10:00 +25°C° 0 mm 0 mps 706 mmHg 48%
    11:00 +27°C° 0 mm 0 mps 705 mmHg 44%
    12:00 +28°C° 0 mm 0 mps 705 mmHg 39%
    13:00 +32°C° 0 mm 1 mps 704 mmHg 34%
    14:00 +31°C° 0 mm 1 mps 704 mmHg 36%
    15:00 +31°C° 0 mm 1 mps 703 mmHg 38%
    16:00 +30°C° 0 mm 1 mps 703 mmHg 40%
    17:00 +25°C° 0 mm 0 mps 703 mmHg 50%
    18:00 +22°C° 0 mm 0 mps 703 mmHg 59%
    19:00 +19°C° 0 mm 0 mps 703 mmHg 69%
    20:00 +19°C° 0 mm 0 mps 703 mmHg 71%
    21:00 +18°C° 0 mm 0 mps 703 mmHg 74%
    22:00 +18°C° 0 mm 0 mps 704 mmHg 76%
    23:00 +17°C° 0 mm 0 mps 704 mmHg 79%
    Show more